Content
SEND FEEDBACK

Daily
Averages
Monthly
Summary
United States of America

HINGHAM, MASSACHUSETTS


Home > North America > United States > Massachusetts
Elevation: 3 feet     Latitude: 42 14N     Longitude: 070 55W

WEATHER
 
SELECT A DAY
Number of Records: 132,886;   Date Range: 10/15/98 - 7/7/14
 
SHARE

PRINT THIS DATA

[ ← Previous Day ]
WEATHER ALMANAC - JUNE 19, 2013
[ Next Day → ]
[ °C ]   °F
Weather ElementAverageHighLow
Temperature63.3 °F71.1 °F (3:54 pm)54 °F (4:54 am)
Dewpoint49.2 °F55 °F (1:54 am)45 °F (2:54 pm)
Humidity63.3 %93 % (1:54 am)39 % (3:54 pm)
Barometer30.04 in30.17 in (11:54 pm)29.93 in (1:54 am)
Wind Speed8.9 mph12.7 mph (12:54 pm)
Wind Gust18.4 mph (2:54 am)
Weather ElementAverage
Wind DirectionSSE (150.5 °)

Weather ElementTotal
Precipitation---
Heating Degree Days2.5 (Base 65)
Growing Degree Days12.6 (Base 50)
Averaged from 19 records on June 19, 2013
WEATHER CONDITIONS BREAKOUT
WIND DIRECTION BREAKOUT
WEATHER BY HOUR - JUNE 19, 2013
[ °C ]   °F
Local TimeTemperatureDewpointHumidityBarometerVisibilityWind DirectionWind SpeedGust SpeedPrecipitationEventsConditions
1:54 AM57.0 °F55.0 °F93 %29.93 inNorth (350°)9.2 mph
2:54 AM55.9 °F53.1 °F90 %29.93 inNorth (10°)11.5 mph18.4 mph
4:54 AM54.0 °F51.1 °F90 %29.94 inNorth (10°)10.4 mph
5:54 AM54.0 °F52.0 °F93 %29.94 inNorth (360°)10.4 mph
6:54 AM57.0 °F54.0 °F89 %29.96 inNorth (350°)8.1 mph
7:54 AM60.1 °F55.0 °F83 %29.98 inNorth (360°)10.4 mph
10:54 AM69.1 °F48.0 °F47 %30.04 inNNE (30°)8.1 mph17.3 mph
11:54 AM70.0 °F46.9 °F44 %30.03 inENE (60°)8.1 mph17.3 mph
12:54 PM70.0 °F46.9 °F44 %30.04 inNE (50°)12.7 mph
2:54 PM69.1 °F45.0 °F42 %30.06 inENE (70°)10.4 mph
3:54 PM71.1 °F45.0 °F39 %30.06 inEast (90°)6.9 mph
4:54 PM70.0 °F45.0 °F41 %30.07 inCalm
5:54 PM70.0 °F48.0 °F46 %30.06 inESE (110°)3.5 mph
6:54 PM66.0 °F48.0 °F52 %30.09 inESE (120°)8.1 mph
7:54 PM64.0 °F46.9 °F54 %30.10 inSE (130°)8.1 mph
8:54 PM62.1 °F46.9 °F58 %30.12 inSSE (160°)9.2 mph
9:54 PM62.1 °F48.9 °F62 %30.16 inSouth (190°)12.7 mph
10:54 PM61.0 °F48.9 °F64 %30.16 inSSW (200°)10.4 mph
11:54 PM60.1 °F51.1 °F72 %30.17 inSSW (210°)11.5 mph
Hourly data recorded from KMQE, located miles away from Hingham, Massachusetts







STORIES FROM OUR PARTNERS